Weather History for KTAD - April, 2013

Change the Weather History Date:

Friday, April 12, 2013

  Actual Average Record
Temperature  
Mean Temperature 46 °F 48 °F  
Max Temperature 63 °F 64 °F 82 °F (1971)
Min Temperature 28 °F 33 °F 6 °F (1997)
Degree Days  
Heating Degree Days 19 16  
Month to date heating degree days 240 215  
Since 1 July heating degree days 4904 5044  
Cooling Degree Days 0 0  
Month to date cooling degree days 0 0  
Year to date cooling degree days 0 0  
Moisture  
Dew Point 26 °F    
Average Humidity 54    
Maximum Humidity 85    
Minimum Humidity 22    
Precipitation  
Precipitation 0.00 in 0.04 in 0.38 in (1969)
Month to date precipitation 0.12 0.39  
Year to date precipitation 0.66 2.17  
Sea Level Pressure  
Sea Level Pressure 29.84 in    
Wind  
Wind Speed 8 mph (NNW)    
Max Wind Speed 29 mph    
Max Gust Speed 37 mph    
Visibility 10 miles    
Events      
T = Trace of Precipitation, MM = Missing Value Source: NWS Daily Summary

Daily Weather History Graph

Daily Weather History Graph

Search for Another Location

Airport or City:

Trip Planner

Search our weather history database for the weather conditions in past years. The results will help you decide how hot, cold, wet, or windy it might be!

Date:

Astronomy

Apr. 12, 2013 Rise Set
Actual Time 6:26 AM MDT 7:30 PM MDT
Civil Twilight 5:59 AM MDT 7:56 PM MDT
Nautical Twilight 5:28 AM MDT 8:28 PM MDT
Astronomical Twilight 4:55 AM MDT 9:01 PM MDT
Moon 7:40 AM MDT (4/12) 9:59 PM MDT (4/12)
Length of Visible Light 13h 56m
Length of Day
13h 03m
Waxing Crescent, 5% of the Moon is Illuminated
Apr 12
Waxing Crescent
Apr 18
First Quarter
Apr 25
Full
May 2
Last Quarter
May 9
New

Hourly Weather History & Observations

Time (MDT) Temp. Windchill Dew Point Humidity Pressure Visibility Wind Dir Wind Speed Gust Speed Precip Events Conditions
12:54 AM 30.9 °F 26.2 °F 25.0 °F 79% 29.87 in 10.0 mi NW 4.6 mph - N/A   Clear
1:54 AM 30.9 °F 26.2 °F 26.1 °F 82% 29.86 in 10.0 mi WNW 4.6 mph - N/A   Scattered Clouds
2:54 AM 32.0 °F - 25.0 °F 75% 29.85 in 10.0 mi Calm Calm - N/A   Clear
3:54 AM 35.1 °F 32.2 °F 26.1 °F 70% 29.82 in 10.0 mi East 3.5 mph - N/A   Scattered Clouds
4:54 AM 32.0 °F - 26.1 °F 79% 29.86 in 10.0 mi Calm Calm - N/A   Overcast
5:54 AM 30.0 °F 25.2 °F 26.1 °F 85% 29.87 in 10.0 mi WNW 4.6 mph - N/A   Overcast
6:54 AM 30.0 °F 26.5 °F 25.0 °F 82% 29.88 in 10.0 mi NW 3.5 mph - N/A   Clear
7:54 AM 35.1 °F 32.2 °F 28.0 °F 76% 29.89 in 10.0 mi NW 3.5 mph - N/A   Clear
8:54 AM 46.0 °F 41.4 °F 28.9 °F 51% 29.86 in 10.0 mi SSW 9.2 mph - N/A   Clear
9:54 AM 50.0 °F - 28.0 °F 43% 29.85 in 10.0 mi SSE 5.8 mph 17.3 mph N/A   Clear
10:54 AM 55.0 °F - 25.0 °F 31% 29.84 in 10.0 mi West 13.8 mph 19.6 mph N/A   Clear
11:54 AM 57.0 °F - 23.0 °F 27% 29.81 in 10.0 mi Variable 5.8 mph - N/A   Clear
12:54 PM 57.9 °F - 21.0 °F 24% 29.80 in 10.0 mi South 5.8 mph - N/A   Clear
1:54 PM 60.1 °F - 23.0 °F 24% 29.78 in 10.0 mi Variable 4.6 mph - N/A   Mostly Cloudy
2:54 PM 63.0 °F - 24.1 °F 23% 29.74 in 10.0 mi NNW 9.2 mph - N/A   Mostly Cloudy
3:54 PM 61.0 °F - 21.0 °F 21% 29.73 in 10.0 mi SW 5.8 mph - N/A   Mostly Cloudy
4:54 PM 60.1 °F - 21.9 °F 23% 29.75 in 10.0 mi North 20.7 mph 33.4 mph N/A   Mostly Cloudy
5:01 PM 60.8 °F - 23.0 °F 23% 29.84 in 10.0 mi North 27.6 mph 36.8 mph N/A   Mostly Cloudy
5:54 PM 57.9 °F - 26.1 °F 30% 29.80 in 10.0 mi NNE 18.4 mph 28.8 mph N/A   Clear
6:54 PM 55.9 °F - 26.1 °F 32% 29.82 in 10.0 mi ENE 15.0 mph - N/A   Partly Cloudy
7:54 PM 50.0 °F - 27.0 °F 41% 29.86 in 10.0 mi East 6.9 mph - N/A   Clear
8:54 PM 45.0 °F 40.6 °F 28.0 °F 52% 29.88 in 10.0 mi SSE 8.1 mph - N/A   Partly Cloudy
9:54 PM 43.0 °F 35.7 °F 30.0 °F 60% 29.91 in 10.0 mi North 15.0 mph - N/A   Clear
10:54 PM 39.9 °F 32.9 °F 32.0 °F 73% 29.92 in 10.0 mi NNE 11.5 mph 19.6 mph N/A   Clear
11:54 PM 35.1 °F 31.0 °F 30.0 °F 82% 29.95 in 10.0 mi NNW 4.6 mph - N/A   Clear